Gustavus, AK

7:04 PM AKST on November 22, 2017 (GMT -0900)
Gustavus

Weather History for PAGS - April, 2013

Change the Weather History Date:

Tuesday, April 23, 2013

  Actual Average Record
Temperature  
Mean Temperature 38 °F -  
Max Temperature 44 °F 50 °F 62 °F (1997)
Min Temperature 33 °F 33 °F 20 °F (1985)
Degree Days  
Heating Degree Days 26    
Moisture  
Dew Point 35 °F    
Average Humidity 87    
Maximum Humidity 100    
Minimum Humidity 66    
Precipitation  
Precipitation 0.00 in - - ()
Sea Level Pressure  
Sea Level Pressure 30.59 in    
Wind  
Wind Speed 3 mph (WNW)    
Max Wind Speed 8 mph    
Max Gust Speed -    
Visibility 9 miles    
Events      
Averages and records for this station are not official NWS values.
T = Trace of Precipitation, MM = Missing Value Source: NWS Daily Summary

Daily Weather History Graph

Daily Weather History Graph

Search for Another Location

Airport or City:

Trip Planner

Search our weather history database for the weather conditions in past years. The results will help you decide how hot, cold, wet, or windy it might be!

Date:

Astronomy

Apr. 23, 2013 Rise Set
Actual Time 5:28 AM AKDT 8:35 PM AKDT
Civil Twilight 4:41 AM AKDT 9:22 PM AKDT
Nautical Twilight 3:38 AM AKDT 10:26 PM AKDT
Astronomical Twilight 1:57 AM AKDT 12:14 AM AKDT
Moon 6:18 PM AKDT 4:30 AM AKDT
Length of Visible Light 16h 40m
Length of Day
15h 07m
Waxing Gibbous, 95% of the Moon is Illuminated
Apr 23
Waxing Gibbous
Apr 25
Full
May 2
Last Quarter
May 9
New
May 17
First Quarter

Hourly Weather History & Observations

Time (AKDT) Temp. Windchill Dew Point Humidity Pressure Visibility Wind Dir Wind Speed Gust Speed Precip Events Conditions
12:16 AM 35.6 °F 31.7 °F 35.6 °F 100% 30.66 in 10.0 mi NW 4.6 mph - N/A   Overcast
12:36 AM 37.4 °F 32.8 °F 35.6 °F 93% 30.66 in 10.0 mi NNW 5.8 mph - N/A   Overcast
12:56 AM 35.6 °F 31.7 °F 35.6 °F 100% 30.66 in 10.0 mi NW 4.6 mph - N/A   Overcast
1:16 AM 35.6 °F 31.7 °F 35.6 °F 100% 30.66 in 10.0 mi NNW 4.6 mph - N/A   Overcast
1:36 AM 35.6 °F 31.7 °F 35.6 °F 100% 30.66 in 10.0 mi NW 4.6 mph - N/A   Overcast
1:56 AM 35.6 °F 31.7 °F 35.6 °F 100% 30.66 in 10.0 mi NNW 4.6 mph - N/A   Overcast
2:16 AM 35.6 °F - 35.6 °F 100% 30.66 in 10.0 mi Calm Calm - N/A   Overcast
2:36 AM 35.6 °F - 33.8 °F 93% 30.66 in 10.0 mi Calm Calm - N/A   Overcast
2:56 AM 35.6 °F - 35.6 °F 100% 30.66 in 10.0 mi Calm Calm - N/A   Overcast
3:16 AM 35.6 °F - 35.6 °F 100% 30.66 in 10.0 mi Calm Calm - N/A   Overcast
3:36 AM 35.6 °F 32.8 °F 33.8 °F 93% 30.66 in 10.0 mi NW 3.5 mph - N/A   Overcast
3:56 AM 35.6 °F 32.8 °F 33.8 °F 93% 30.66 in 10.0 mi NW 3.5 mph - N/A   Overcast
4:16 AM 35.6 °F - 33.8 °F 93% 30.66 in 10.0 mi Calm Calm - N/A   Overcast
4:36 AM 35.6 °F - 33.8 °F 93% 30.66 in 10.0 mi Calm Calm - N/A   Overcast
4:56 AM 35.6 °F - 33.8 °F 93% 30.66 in 10.0 mi Calm Calm - N/A   Overcast
5:16 AM 35.6 °F - 35.6 °F 100% 30.66 in 10.0 mi Calm Calm - N/A   Overcast
5:36 AM 33.8 °F - 32.0 °F 93% 30.66 in 10.0 mi Calm Calm - N/A   Overcast
5:56 AM 33.8 °F - 33.8 °F 100% 30.65 in 10.0 mi Calm Calm - N/A   Overcast
6:16 AM 33.8 °F - 33.8 °F 100% 30.65 in 0.2 mi Calm Calm - N/A   Overcast
6:36 AM 33.8 °F - 32.0 °F 93% 30.66 in 0.2 mi Calm Calm - N/A   Overcast
6:56 AM 33.8 °F - 32.0 °F 93% 30.66 in 0.2 mi Calm Calm - N/A   Overcast
7:16 AM 33.8 °F - 33.8 °F 100% 30.66 in 0.2 mi Calm Calm - N/A   Overcast
7:36 AM 35.6 °F - 35.6 °F 100% 30.66 in 0.5 mi Calm Calm - N/A   Overcast
7:56 AM 35.6 °F - 35.6 °F 100% 30.65 in 1.0 mi Calm Calm - N/A   Overcast
8:16 AM 37.4 °F - 35.6 °F 93% 30.65 in 10.0 mi Calm Calm - N/A   Overcast
8:36 AM 37.4 °F - 37.4 °F 100% 30.65 in 10.0 mi Calm Calm - N/A   Overcast
8:56 AM 39.2 °F - 37.4 °F 93% 30.64 in 10.0 mi Calm Calm - N/A   Overcast
9:16 AM 39.2 °F 37.0 °F 37.4 °F 93% 30.64 in 10.0 mi SE 3.5 mph - N/A   Overcast
9:36 AM 39.2 °F - 37.4 °F 93% 30.64 in 10.0 mi Calm Calm - N/A   Overcast
9:56 AM 39.2 °F - 35.6 °F 87% 30.64 in 10.0 mi Calm Calm - N/A   Overcast
10:16 AM 39.2 °F - 35.6 °F 87% 30.64 in 10.0 mi Calm Calm - N/A   Overcast
10:36 AM 39.2 °F 35.9 °F 35.6 °F 87% 30.64 in 10.0 mi SE 4.6 mph - N/A   Overcast
10:56 AM 41.0 °F - 33.8 °F 76% 30.64 in 10.0 mi Calm Calm - N/A   Overcast
11:16 AM 42.8 °F 41.1 °F 35.6 °F 76% 30.64 in 10.0 mi South 3.5 mph - N/A   Mostly Cloudy
11:36 AM 42.8 °F 39.3 °F 35.6 °F 76% 30.63 in 10.0 mi South 5.8 mph - N/A   Mostly Cloudy
11:56 AM 42.8 °F 40.1 °F 35.6 °F 76% 30.63 in 10.0 mi ESE 4.6 mph - N/A   Mostly Cloudy
12:16 PM 44.6 °F 42.2 °F 35.6 °F 71% 30.63 in 10.0 mi South 4.6 mph - N/A   Mostly Cloudy
12:36 PM 44.6 °F 40.7 °F 35.6 °F 71% 30.63 in 10.0 mi SW 6.9 mph - N/A   Mostly Cloudy
12:56 PM 44.6 °F 41.4 °F 37.4 °F 76% 30.63 in 10.0 mi SSW 5.8 mph - N/A   Overcast
1:16 PM 44.6 °F 42.2 °F 35.6 °F 71% 30.62 in 10.0 mi SW 4.6 mph - N/A   Overcast
1:36 PM 44.6 °F 41.4 °F 35.6 °F 71% 30.62 in 10.0 mi WSW 5.8 mph - N/A   Overcast
1:56 PM 44.6 °F 43.1 °F 33.8 °F 66% 30.62 in 10.0 mi SSW 3.5 mph - N/A   Overcast
2:16 PM 44.6 °F 42.2 °F 33.8 °F 66% 30.61 in 10.0 mi SW 4.6 mph - N/A   Overcast
2:36 PM 44.6 °F 43.1 °F 33.8 °F 66% 30.61 in 10.0 mi SSW 3.5 mph - N/A   Overcast
2:56 PM 44.6 °F 41.4 °F 37.4 °F 76% 30.60 in 10.0 mi NW 5.8 mph - N/A   Overcast
3:16 PM 44.6 °F - 35.6 °F 71% 30.60 in 10.0 mi Calm Calm - N/A   Overcast
3:36 PM 44.6 °F 43.1 °F 35.6 °F 71% 30.59 in 10.0 mi SW 3.5 mph - N/A   Overcast
3:56 PM 44.6 °F - 35.6 °F 71% 30.58 in 10.0 mi Calm Calm - N/A   Overcast
4:16 PM 44.6 °F 43.1 °F 35.6 °F 71% 30.58 in 10.0 mi SW 3.5 mph - N/A   Overcast
4:36 PM 44.6 °F - 33.8 °F 66% 30.57 in 10.0 mi Calm Calm - N/A   Overcast
4:56 PM 44.6 °F 43.1 °F 35.6 °F 71% 30.56 in 10.0 mi NW 3.5 mph - N/A   Overcast
5:16 PM 44.6 °F 40.2 °F 37.4 °F 76% 30.55 in 10.0 mi NNW 8.1 mph - N/A   Overcast
5:36 PM 42.8 °F 39.3 °F 37.4 °F 81% 30.54 in 10.0 mi NW 5.8 mph - N/A   Overcast
5:56 PM - - - N/A% 30.53 in 10.0 mi NNW 6.9 mph - N/A   Overcast
6:16 PM - - - N/A% 30.52 in 10.0 mi NNW 6.9 mph - N/A   Overcast
6:36 PM - - - N/A% 30.51 in 10.0 mi NW 5.8 mph - N/A   Overcast
6:56 PM - - - N/A% 30.51 in 10.0 mi NW 4.6 mph - N/A   Overcast
7:16 PM - - - N/A% 30.50 in 10.0 mi NNW 6.9 mph - N/A   Overcast
7:36 PM - - - N/A% 30.49 in 10.0 mi NW 5.8 mph - N/A   Overcast
7:56 PM - - - N/A% 30.48 in 10.0 mi NW 6.9 mph - N/A   Overcast
8:16 PM 41.0 °F 37.1 °F 35.6 °F 81% 30.49 in 10.0 mi NW 5.8 mph - N/A   Overcast
8:36 PM 39.2 °F 35.0 °F 33.8 °F 81% 30.48 in 10.0 mi NW 5.8 mph - N/A   Overcast
8:56 PM 39.2 °F 35.0 °F 35.6 °F 87% 30.48 in 10.0 mi NW 5.8 mph - N/A   Overcast
9:16 PM 39.2 °F - 35.6 °F 87% 30.48 in 10.0 mi Calm Calm - N/A   Overcast
9:36 PM 39.2 °F - 35.6 °F 87% 30.48 in 10.0 mi Calm Calm - N/A   Overcast
9:56 PM 39.2 °F 37.0 °F 35.6 °F 87% 30.47 in 10.0 mi NW 3.5 mph - N/A   Overcast
10:16 PM 39.2 °F 35.9 °F 35.6 °F 87% 30.46 in 10.0 mi NNW 4.6 mph - N/A   Overcast
10:36 PM 37.4 °F 33.8 °F 35.6 °F 93% 30.45 in 10.0 mi NNW 4.6 mph - N/A   Overcast
10:56 PM 37.4 °F 32.8 °F 35.6 °F 93% 30.46 in 10.0 mi NNW 5.8 mph - N/A   Overcast
11:16 PM 37.4 °F 32.1 °F 35.6 °F 93% 30.45 in 6.0 mi NNW 6.9 mph - N/A   Overcast
11:36 PM 37.4 °F 32.1 °F 35.6 °F 93% 30.43 in 5.0 mi NNW 6.9 mph - N/A   Overcast
11:56 PM 37.4 °F 32.8 °F 35.6 °F 93% 30.43 in 7.0 mi NW 5.8 mph - N/A   Overcast